This is the latest recevied weather packets stored in our database for station/object K5UBE. If no packets are shown the sender has not sent any weather packets the latest 10 day(s).
| Time | Temp. | Humidity | Pressure | Rain* | Wind** | Luminosity | Snow |
|---|---|---|---|---|---|---|---|
| 1777975570 | 16.67° C | 31% | 1010.2 hPa | 0 mm | - | - | - |
| 1777975267 | 16.67° C | 31% | 1010.3 hPa | 0 mm | - | - | - |
| 1777974963 | 16.11° C | 31% | 1009.9 hPa | 0 mm | - | - | - |
| 1777974659 | 16.11° C | 32% | 1010.3 hPa | 0 mm | - | - | - |
| 1777974356 | 16.11° C | 32% | 1010.2 hPa | 0 mm | - | - | - |
| 1777974052 | 16.11° C | 31% | 1009.9 hPa | 0 mm | - | - | - |
| 1777973749 | 16.11° C | 31% | 1010.1 hPa | 0 mm | - | - | - |
| 1777973447 | 16.11° C | 32% | 1010.1 hPa | 0 mm | - | - | - |
| 1777973144 | 16.11° C | 32% | 1009.7 hPa | 0 mm | - | - | - |
| 1777972842 | 16.11° C | 32% | 1009.7 hPa | 0 mm | - | - | - |
| 1777972538 | 16.67° C | 30% | 1009.8 hPa | 0 mm | - | - | - |
| 1777972237 | 17.78° C | 29% | 1009.6 hPa | 0 mm | - | - | - |
| 1777971934 | 17.78° C | 28% | 1009.5 hPa | 0 mm | - | - | - |
| 1777971632 | 18.33° C | 27% | 1009.6 hPa | 0 mm | - | - | - |
| 1777971330 | 17.78° C | 28% | 1009.6 hPa | 0 mm | - | - | - |
| 1777971028 | 17.78° C | 28% | 1009.6 hPa | 0 mm | - | - | - |
| 1777970726 | 17.78° C | 28% | 1009.6 hPa | 0 mm | - | - | - |
| 1777970423 | 17.22° C | 29% | 1009.6 hPa | 0 mm | - | - | - |
| 1777970120 | 17.22° C | 29% | 1009.6 hPa | 0 mm | - | - | - |
| 1777969817 | 17.22° C | 29% | 1009.6 hPa | 0 mm | - | - | - |
| 1777969512 | 17.22° C | 29% | 1009.5 hPa | 0 mm | - | - | - |
| 1777969209 | 17.78° C | 29% | 1009.4 hPa | 0 mm | - | - | - |
| 1777968906 | 17.78° C | 29% | 1009.4 hPa | 0 mm | - | - | - |
| 1777968603 | 17.78° C | 29% | 1009.2 hPa | 0 mm | - | - | - |
| 1777968299 | 17.78° C | 29% | 1009.4 hPa | 0 mm | - | - | - |
* Rain latest hour (hover to see other rain measurements)
** Current wind speed in m/s (hover to see current wind gust speed)